Date String (YYYY-MM-DD hh:mm:ss) UTC,Instrument flags,absolute air pressure of the measurement (hPa),sample flow rate (lpm),inlet stack bypass flow (lpm),air temperature of the measurement (°C),ambient temperature measured by the external sensor (°C),aerosol sample conditioner tube jacket temperature (°C),OPC LED temperature (°C),internal box temperature (°C),relative humidity of the measurement (%),span deviation,mass concentration of particles derived from Lorenz-Mie calculation of OPC scattering (μg/m³),mass concentration of particles derived from Lorenz-Mie calculation of OPC scattering (μg/m³),mass concentration of particles derived from Lorenz-Mie calculation of OPC scattering (μg/m³)
DateTimeUTC,F1_M11,P_M11,Q1_M11,Q2_M11,T1_M11,T2_M11,T3_M11,T4_M11,T5_M11,U1_M11,ZSPAN_M11,X0_M11,X2_M11,X1_M11
2023-10-06 04:00:00,SystemResetWarning,0838.3,5.00,000.00,029.1,025.2,000.0,037.4,030.6,17.3,0000.0,0021.51,0004.87,0002.96
2023-10-06 04:01:00,SystemResetWarning,0838.3,5.01,000.00,029.0,024.4,000.0,037.3,030.4,17.4,0000.0,0021.02,0004.93,0002.98
2023-10-06 04:02:00,SystemResetWarning,0838.3,5.00,000.00,028.8,024.5,000.0,037.3,030.0,17.6,0000.0,0020.75,0004.96,0002.99
2023-10-06 04:03:00,SystemResetWarning,0838.3,5.00,000.00,028.7,024.8,000.0,037.3,030.0,17.7,0000.0,0021.20,0004.96,0003.00
2023-10-06 04:04:00,SystemResetWarning,0838.3,5.00,000.00,028.6,025.2,000.0,037.3,030.1,17.7,0000.0,0021.52,0004.97,0003.02
2023-10-06 04:05:00,SystemResetWarning,0838.3,5.00,000.00,028.6,025.6,000.0,037.3,030.1,17.8,0000.0,0021.21,0004.89,0003.04
2023-10-06 04:06:00,SystemResetWarning,0838.3,5.00,000.00,028.6,025.9,000.0,037.2,030.1,17.8,0000.0,0021.93,0004.81,0003.05
2023-10-06 04:07:00,SystemResetWarning,0838.3,5.00,000.00,028.6,026.2,000.0,037.2,030.2,17.8,0000.0,0022.48,0004.75,0003.04
2023-10-06 04:08:00,SystemResetWarning,0838.3,5.00,000.00,028.6,026.4,000.0,037.2,030.2,17.8,0000.0,0023.47,0004.74,0003.03
2023-10-06 04:09:00,SystemResetWarning,0838.3,4.99,000.00,028.6,026.6,000.0,037.2,030.2,17.8,0000.0,0024.22,0004.71,0003.05
2023-10-06 04:10:00,SystemResetWarning,0838.3,5.00,000.00,028.6,026.7,000.0,037.2,030.2,17.8,0000.0,0023.69,0004.64,0003.01
2023-10-06 04:11:00,SystemResetWarning,0838.3,5.00,000.00,028.6,026.8,000.0,037.2,030.2,17.8,0000.0,0023.11,0004.59,0002.98
2023-10-06 04:12:00,SystemResetWarning,0838.3,5.01,000.00,028.6,026.9,000.0,037.2,030.3,17.7,0000.0,0022.77,0004.54,0002.97
2023-10-06 04:13:00,SystemResetWarning,0838.3,5.00,000.00,028.6,027.0,000.0,037.2,030.3,17.7,0000.0,0022.74,0004.52,0002.98
2023-10-06 04:14:00,SystemResetWarning,0838.3,5.00,000.00,028.6,027.1,000.0,037.2,030.3,17.7,0000.0,0021.81,0004.47,0002.98
2023-10-06 04:15:00,SystemResetWarning,0838.3,5.00,000.00,028.6,027.2,000.0,037.2,030.3,17.7,0000.0,0022.14,0004.47,0002.96
2023-10-06 04:16:00,SystemResetWarning,0838.3,5.00,000.00,028.7,027.2,000.0,037.2,030.4,17.6,0000.0,0023.62,0004.53,0002.95
2023-10-06 04:17:00,SystemResetWarning,0838.3,4.99,000.00,028.7,027.3,000.0,037.2,030.4,17.6,0000.0,0022.35,0004.51,0002.94
2023-10-06 04:18:00,SystemResetWarning,0838.3,5.00,000.00,028.7,027.3,000.0,037.2,030.4,17.6,0000.0,0021.41,0004.53,0002.94
2023-10-06 04:19:00,SystemResetWarning,0838.3,5.00,000.00,028.7,027.3,000.0,037.2,030.4,17.6,0000.0,0020.65,0004.51,0002.92
2023-10-06 04:20:00,SystemResetWarning,0838.3,5.00,000.00,028.7,027.3,000.0,037.2,030.4,17.5,0000.0,0020.32,0004.51,0002.91
2023-10-06 04:21:00,SystemResetWarning,0838.3,5.00,000.00,028.8,027.4,000.0,037.2,030.4,17.5,0000.0,0019.08,0004.49,0002.95
2023-10-06 04:22:00,SystemResetWarning,0838.3,5.01,000.00,028.8,027.4,000.0,037.2,030.4,17.5,0000.0,0020.21,0004.53,0002.96
2023-10-06 04:23:00,SystemResetWarning,0838.3,5.00,000.00,028.8,027.4,000.0,037.2,030.4,17.5,0000.0,0020.71,0004.50,0002.97
2023-10-06 04:24:00,SystemResetWarning,0838.3,5.00,000.00,028.8,027.4,000.0,037.2,030.5,17.4,0000.0,0019.64,0004.47,0002.97
2023-10-06 04:25:00,SystemResetWarning,0838.2,5.00,000.00,028.8,027.5,000.0,037.3,030.5,17.4,0000.0,0019.44,0004.44,0002.97
2023-10-06 04:26:00,SystemResetWarning,0838.2,5.00,000.00,028.8,027.5,000.0,037.3,030.5,17.4,0000.0,0017.87,0004.42,0003.00
2023-10-06 04:27:00,SystemResetWarning,0838.2,5.01,000.00,028.9,027.5,000.0,037.3,030.5,17.4,0000.0,0015.82,0004.40,0003.01
2023-10-06 04:28:00,SystemResetWarning,0838.2,5.00,000.00,028.9,027.5,000.0,037.3,030.5,17.4,0000.0,0016.82,0004.47,0003.03
2023-10-06 04:29:00,SystemResetWarning,0838.2,4.99,000.00,028.9,027.5,000.0,037.3,030.5,17.4,0000.0,0018.99,0004.49,0003.03
2023-10-06 04:30:00,SystemResetWarning,0838.2,4.99,000.00,028.9,027.6,000.0,037.3,030.5,17.4,0000.0,0019.84,0004.49,0003.04
2023-10-06 04:31:00,SystemResetWarning,0838.2,5.00,000.00,028.9,027.6,000.0,037.3,030.6,17.4,0000.0,0019.35,0004.48,0003.08
2023-10-06 04:32:00,SystemResetWarning,0838.2,5.01,000.00,028.9,027.6,000.0,037.3,030.6,17.4,0000.0,0019.91,0004.54,0003.10
2023-10-06 04:33:00,SystemResetWarning,0838.1,5.01,000.00,028.9,027.6,000.0,037.3,030.6,17.3,0000.0,0019.04,0004.52,0003.10
2023-10-06 04:34:00,SystemResetWarning,0838.2,5.01,000.00,028.9,027.6,000.0,037.3,030.6,17.3,0000.0,0018.24,0004.52,0003.09
2023-10-06 04:35:00,SystemResetWarning,0838.2,5.00,000.00,029.0,027.7,000.0,037.3,030.6,17.3,0000.0,0018.53,0004.55,0003.09
2023-10-06 04:36:00,SystemResetWarning,0838.2,4.99,000.00,029.0,027.7,000.0,037.4,030.6,17.3,0000.0,0019.23,0004.60,0003.08
2023-10-06 04:37:00,SystemResetWarning,0838.2,4.99,000.00,029.0,027.7,000.0,037.4,030.6,17.3,0000.0,0019.67,0004.63,0003.08
2023-10-06 04:38:00,SystemResetWarning,0838.2,4.99,000.00,029.0,027.7,000.0,037.4,030.7,17.2,0000.0,0020.57,0004.67,0003.07
2023-10-06 04:39:00,SystemResetWarning,0838.2,5.00,000.00,029.0,027.7,000.0,037.4,030.7,17.2,0000.0,0020.67,0004.65,0003.08
2023-10-06 04:40:00,SystemResetWarning,0838.2,5.01,000.00,029.0,027.7,000.0,037.4,030.7,17.2,0000.0,0018.03,0004.57,0003.07
2023-10-06 04:41:00,SystemResetWarning,0838.2,5.00,000.00,029.0,027.7,000.0,037.4,030.7,17.2,0000.0,0018.64,0004.60,0003.08
2023-10-06 04:42:00,SystemResetWarning,0838.1,5.00,000.00,029.0,027.7,000.0,037.4,030.7,17.1,0000.0,0018.99,0004.62,0003.06
2023-10-06 04:43:00,SystemResetWarning,0838.2,5.00,000.00,029.0,027.7,000.0,037.4,030.7,17.1,0000.0,0018.37,0004.54,0003.02
2023-10-06 04:44:00,SystemResetWarning,0838.2,4.99,000.00,029.0,027.7,000.0,037.4,030.7,17.1,0000.0,0017.87,0004.52,0003.02
2023-10-06 04:45:00,SystemResetWarning,0838.2,5.00,000.00,029.0,027.7,000.0,037.4,030.7,17.1,0000.0,0017.97,0004.52,0003.02
2023-10-06 04:46:00,SystemResetWarning,0838.2,5.00,000.00,029.0,027.7,000.0,037.4,030.7,17.1,0000.0,0019.22,0004.55,0003.01
2023-10-06 04:47:00,SystemResetWarning,0838.2,5.00,000.00,029.1,027.7,000.0,037.5,030.7,17.1,0000.0,0018.95,0004.57,0003.02
2023-10-06 04:48:00,SystemResetWarning,0838.2,5.01,000.00,029.1,027.7,000.0,037.5,030.7,17.1,0000.0,0019.62,0004.57,0003.02
2023-10-06 04:49:00,SystemResetWarning,0838.2,5.00,000.00,029.1,027.7,000.0,037.5,030.7,17.0,0000.0,0020.20,0004.55,0003.02
2023-10-06 04:50:00,SystemResetWarning,0838.1,5.01,000.00,029.1,027.7,000.0,037.5,030.7,17.0,0000.0,0020.36,0004.56,0003.02
2023-10-06 04:51:00,SystemResetWarning,0838.2,5.01,000.00,029.1,027.7,000.0,037.5,030.7,17.0,0000.0,0021.11,0004.57,0003.02
2023-10-06 04:52:00,SystemResetWarning,0838.2,4.99,000.00,029.1,027.7,000.0,037.5,030.7,17.0,0000.0,0019.50,0004.56,0003.01
2023-10-06 04:53:00,SystemResetWarning,0838.2,4.99,000.00,029.1,027.7,000.0,037.5,030.7,17.0,0000.0,0020.17,0004.54,0003.00
2023-10-06 04:54:00,SystemResetWarning,0838.1,5.00,000.00,029.1,027.7,000.0,037.5,030.7,17.0,0000.0,0021.41,0004.53,0002.99
2023-10-06 04:55:00,SystemResetWarning,0838.1,5.01,000.00,029.1,027.7,000.0,037.5,030.7,17.0,0000.0,0021.64,0004.50,0002.97
2023-10-06 04:56:00,SystemResetWarning,0838.1,5.01,000.00,029.1,027.7,000.0,037.5,030.7,17.0,0000.0,0022.02,0004.43,0002.96
2023-10-06 04:57:00,SystemResetWarning,0838.0,5.00,000.00,029.1,027.7,000.0,037.5,030.7,17.0,0000.0,0021.10,0004.34,0002.95
2023-10-06 04:58:00,SystemResetWarning,0837.9,4.99,000.00,029.1,027.7,000.0,037.6,030.7,17.0,0000.0,0020.58,0004.29,0002.93
2023-10-06 04:59:00,SystemResetWarning,0838.0,4.99,000.00,029.1,027.7,000.0,037.6,030.7,17.0,0000.0,0020.13,0004.25,0002.91
